Culdrose, United Kingdom

4:19 AM GMT on February 23, 2017 (GMT +0000)
Culdrose

Weather History for EGDR - June, 2013

Change the Weather History Date:

Wednesday, June 5, 2013

  Actual Average Record
Temperature  
Mean Temperature 52 °F -  
Max Temperature 58 °F 60 °F 71 °F (2006)
Min Temperature 45 °F 50 °F 45 °F (2013)
Degree Days  
Heating Degree Days 14    
Growing Degree Days 2 (Base 50)    
Moisture  
Dew Point 47 °F    
Average Humidity 80    
Maximum Humidity 94    
Minimum Humidity 67    
Precipitation  
Precipitation 0.00 in - - ()
Sea Level Pressure  
Sea Level Pressure 30.10 in    
Wind  
Wind Speed 10 mph ()    
Max Wind Speed 21 mph    
Max Gust Speed -    
Visibility 6.8 miles    
Events      
Averages and records for this station are not official NWS values.
T = Trace of Precipitation, MM = Missing Value Source: Averaged Metar Reports

Daily Weather History Graph

Daily Weather History Graph

Search for Another Location

Airport or City:

Trip Planner

Search our weather history database for the weather conditions in past years. The results will help you decide how hot, cold, wet, or windy it might be!

Date:

Astronomy

Jun. 05, 2013 Rise Set
Actual Time 5:13 AM BST 9:25 PM BST
Civil Twilight 4:30 AM BST 10:09 PM BST
Nautical Twilight 3:27 AM BST 11:12 PM BST
Astronomical Twilight 1:51 AM BST 12:47 AM BST
Moon 3:26 AM BST (6/5) 6:25 PM BST (6/5)
Length of Visible Light 17h 38m
Length of Day
16h 11m
Waning Crescent, 9% of the Moon is Illuminated
Jun 5
Waning Crescent
Jun 8
New
Jun 16
First Quarter
Jun 23
Full
Jun 30
Last Quarter

Hourly Weather History & Observations

Time (BST) Temp. Windchill Dew Point Humidity Pressure Visibility Wind Dir Wind Speed Gust Speed Precip Events Conditions
12:50 AM 48 °F - 41 °F 68% 30.18 in 16 mi ENE 8.1 mph - -   Scattered Clouds
12:50 AM 48.2 °F - 41.0 °F 76% 30.15 in - ENE 8.1 mph - N/A   Clear
1:50 AM 48.2 °F - 41.0 °F 76% 30.15 in - ENE 6.9 mph - N/A   Clear
2:50 AM 46.4 °F 42.4 °F 41.0 °F 81% 30.15 in 6.2 mi ENE 8.1 mph - N/A   Partly Cloudy
3:50 AM 46 °F - 41 °F 75% 30.15 in 16 mi ENE 8.1 mph - -   Scattered Clouds
3:50 AM 46.4 °F 42.4 °F 41.0 °F 81% 30.12 in 6.2 mi ENE 8.1 mph - N/A   Partly Cloudy
4:50 AM 46.4 °F 41.5 °F 41.0 °F 81% 30.12 in - East 10.4 mph - N/A   Clear
5:50 AM 48.2 °F - 44.6 °F 87% 30.12 in - ENE 8.1 mph - N/A   Clear
6:50 AM 51 °F - 47 °F 83% 30.14 in 12 mi ENE 9.2 mph - -   Scattered Clouds
6:50 AM 51.8 °F - 48.2 °F 88% 30.12 in 6.2 mi ENE 9.2 mph - N/A   Partly Cloudy
7:50 AM 51.8 °F - 50.0 °F 94% 30.12 in 6.2 mi East 16.1 mph - N/A   Overcast
8:50 AM 51.8 °F - 48.2 °F 88% 30.09 in 6.2 mi East 13.8 mph - N/A   Haze
9:50 AM 52 °F - 47 °F 79% 30.12 in 7 mi East 20.7 mph - -   Haze
9:50 AM 51.8 °F - 48.2 °F 88% 30.09 in 6.2 mi East 20.7 mph - N/A   Haze
10:50 AM 51.8 °F - 48.2 °F 88% 30.09 in 5.0 mi East 16.1 mph - N/A   Haze
11:50 AM 51.8 °F - 48.2 °F 88% 30.09 in 5.6 mi East 20.7 mph - N/A   Haze
12:50 PM 57 °F - 50 °F 71% 30.10 in 6 mi ESE 13.8 mph - -   Haze
12:50 PM 57.2 °F - 50.0 °F 77% 30.09 in 5.6 mi ESE 13.8 mph - N/A   Haze
1:50 PM 55.4 °F - 50.0 °F 82% 30.09 in 5.6 mi East 12.7 mph - N/A   Haze
2:50 PM 55.4 °F - 50.0 °F 82% 30.09 in 6.2 mi East 13.8 mph - N/A   Haze
3:50 PM 57 °F - 49 °F 67% 30.09 in 7 mi East 13.8 mph - -   Haze
3:50 PM 57.2 °F - 48.2 °F 72% 30.06 in 6.2 mi East 13.8 mph - N/A   Haze
4:50 PM 57.2 °F - 48.2 °F 72% 30.06 in 6.2 mi ESE 13.8 mph - N/A   Haze
5:50 PM 57.2 °F - 48.2 °F 72% 30.06 in 6.2 mi East 13.8 mph - N/A   Haze
6:50 PM 55 °F - 48 °F 71% 30.08 in 6 mi East 11.5 mph - -   Haze
6:50 PM 55.4 °F - 48.2 °F 77% 30.06 in 6.2 mi East 11.5 mph - N/A   Haze
7:50 PM 55.4 °F - 48.2 °F 77% 30.04 in 6.2 mi East 10.4 mph - N/A   Haze
8:50 PM 51.8 °F - 48.2 °F 88% 30.06 in 6.2 mi East 9.2 mph - N/A   Haze
9:50 PM 51 °F - 47 °F 81% 30.07 in 5 mi East 11.5 mph - -   Haze
9:50 PM 51.8 °F - 46.4 °F 82% 30.06 in 5.0 mi East 11.5 mph - N/A   Haze
10:50 PM 51.8 °F - 46.4 °F 82% 30.06 in 5.0 mi East 12.7 mph - N/A   Haze
11:50 PM 50.0 °F - 46.4 °F 87% 30.06 in 3.7 mi ENE 11.5 mph - N/A   Haze